Location: Kelshall
(52.0000°N, 0.0500°W)
Time: 12:15:26
(UTC+00:00)

Cosmos 2298 Rocket - Pass Details

Date: 18 September 2020
Orbit: 777 x 783 km, 74.0° (Epoch: 25 October)

Event Time Altitude Azimuth Distance (km) Brightness Sun altitude
Rises 19:58:04 0° 195° (SSW) 3,259 7.1 -17.3°
Reaches altitude 10° 20:00:27 10° 193° (SSW) 2,335 6.4 -17.6°
Maximum altitude 20:05:43 70° 111° (ESE) 837 3.9 -18.3°
Drops below altitude 10° 20:11:02 10° 29° (NNE) 2,350 6.5 -19.1°
Sets 20:13:26 0° 27° (NNE) 3,282 7.3 -19.4°
